Location: Dehesa de la Cepeda
(40.6574°N, 4.3013°W)
Time: 13:38:42
(UTC+00:00)

Transit 2A Rocket - Pass Details

Date: 04 August 2021
Orbit: 586 x 917 km, 66.7° (Epoch: 27 September)

Event Time Altitude Azimuth Distance (km) Brightness Sun altitude
Rises 22:03:29 0° 333° (NNW) 3,297 9.7 -23.9°
Reaches altitude 10° 22:05:51 10° 337° (NNW) 2,412 8.6 -24.1°
Maximum altitude 22:11:26 63° 58° (ENE) 961 5.4 -24.7°
Enters shadow 22:12:22 55° 101° (E) 1,040 5.3 -24.8°
